Vorticity
21 16 9 7 2 3 -7 0 19 11 9 12 5 4 4 7 8 7 5 3 2 3 5 9 12 13 11 10 8 5 6 6 4 4 9 15 16 13 9 7 6 5 4 2 2 4 4 6 5 5 5 4 6 6 6 4 5 6 5 5 4 4 3 1 2 2 1 2 -1 1 5 4 5 6 7 6 5 4 1 5 11 13 9 9 10 7 10 11
20 17 7 5 7 10 -3 6 22 10 10 9 3 5 7 8 6 4 3 2 3 6 10 13 13 10 7 8 8 6 5 4 6 12 16 14 10 7 7 5 3 3 4 4 3 5 5 5 6 5 5 4 5 5 5 4 3 4 2 2 1 0 2 1 2 3 3 4 3 5 7 7 8 7 7 7 6 3 5 10 13 12 7 11 14 10 11 11
16 10 -5 2 8 10 7 12 14 7 9 4 4 8 5 5 2 2 2 3 7 11 14 11 9 7 7 8 6 4 4 9 14 14 11 7 6 5 5 3 3 4 5 6 4 4 4 5 5 4 4 4 3 3 3 2 2 2 0 1 1 1 3 3 4 4 5 5 3 5 7 9 9 7 6 5 7 7 10 12 10 11 9 12 16 12 12 12
4 -2 -4 6 3 8 16 11 7 5 6 4 8 7 3 4 1 2 3 8 13 12 10 8 8 8 8 6 3 5 9 13 12 8 6 5 5 3 3 3 4 6 4 4 4 4 4 4 4 3 4 3 2 3 2 2 3 3 3 3 4 5 5 4 5 6 6 4 3 5 7 11 8 6 6 4 9 13 12 12 10 11 7 8 12 11 13 13
-1 -2 8 14 5 10 13 5 6 7 6 8 8 4 3 3 1 4 9 13 12 9 7 7 9 7 4 5 7 12 12 10 7 6 6 4 4 3 4 4 4 5 3 3 4 4 3 2 4 3 3 2 2 3 2 4 5 4 4 5 5 5 5 4 5 6 5 3 5 8 8 11 8 7 9 8 12 12 9 11 9 8 6 9 13 12 12 12
-2 -4 5 12 8 9 9 5 7 7 8 7 4 3 2 2 5 10 13 12 8 7 8 7 6 3 5 10 14 14 10 7 5 4 4 3 3 4 5 5 4 4 3 4 3 4 3 2 4 3 3 4 4 4 4 5 5 5 4 4 4 4 5 5 6 6 5 5 8 10 10 11 7 7 10 11 11 8 8 10 8 9 11 12 14 13 12 11
-2 2 7 11 9 9 11 8 6 6 6 4 3 2 2 6 11 13 11 7 7 9 8 5 4 6 11 13 11 9 7 6 4 3 3 4 4 4 4 4 4 3 4 4 2 4 3 3 4 4 5 5 5 4 4 5 4 5 5 4 4 5 6 6 7 6 5 9 10 10 10 8 6 8 11 11 10 7 8 8 9 12 13 12 13 13 11 10
5 12 13 13 14 12 9 6 5 5 4 2 1 2 7 12 12 10 7 6 10 8 4 3 7 11 11 9 7 5 5 5 4 5 5 5 5 4 4 4 4 3 4 4 3 4 4 4 5 5 5 4 4 3 3 5 4 4 5 6 6 7 8 7 8 6 7 10 10 9 8 7 6 6 9 10 7 6 7 7 9 12 13 14 13 12 11 11
11 13 12 12 12 8 4 4 5 4 2 1 3 8 12 12 9 7 7 9 8 3 4 8 12 10 7 6 5 5 5 4 3 4 5 4 4 3 4 4 4 4 4 4 4 5 4 5 5 4 4 4 4 4 4 5 6 7 8 7 8 9 7 7 8 5 8 8 8 9 5 5 6 7 10 9 5 5 6 7 8 11 14 14 13 12 13 13
9 7 8 7 5 4 4 4 4 3 2 4 8 13 13 9 7 8 8 6 2 4 10 12 10 7 6 5 4 6 6 4 4 4 4 4 4 4 4 4 4 4 4 4 5 5 4 3 4 5 4 5 5 5 6 7 8 8 8 6 7 10 7 7 8 5 7 6 7 8 4 3 4 6 7 3 2 4 5 7 8 11 14 13 14 14 15 17
5 6 7 5 5 5 4 5 4 3 4 9 13 12 8 6 8 9 6 2 4 11 12 8 7 6 5 3 3 6 6 5 5 5 4 3 4 4 4 4 4 5 4 4 5 4 4 3 4 5 4 5 6 7 7 6 8 6 6 6 6 8 6 6 8 4 5 4 6 8 3 0 -0 3 4 1 4 6 7 9 9 12 13 13 15 15 17 20
5 8 8 5 4 5 5 4 3 5 10 12 11 8 6 7 9 6 2 5 10 10 8 6 6 5 5 4 5 6 6 5 4 4 5 4 4 4 4 4 4 5 4 4 4 4 5 4 5 6 5 7 7 7 5 3 6 4 5 6 5 7 7 7 7 4 5 4 6 6 2 0 3 7 7 5 8 7 6 6 8 12 12 13 15 16 18 20
5 7 7 4 4 6 4 3 6 10 12 11 7 6 7 9 6 2 5 10 10 7 6 6 4 5 5 5 6 5 5 4 4 5 5 4 4 3 3 4 4 6 5 4 5 5 5 4 5 6 5 6 4 3 3 3 5 3 4 6 6 8 7 7 7 5 5 3 3 3 2 1 4 7 5 6 7 4 3 5 9 12 11 13 15 17 19 21
3 2 2 4 6 5 2 6 11 12 11 8 5 8 10 7 3 5 11 9 6 6 6 5 5 6 6 6 5 4 4 4 4 4 4 4 4 3 4 5 4 5 5 5 5 4 5 5 5 5 4 3 2 4 5 4 5 4 6 7 6 5 6 9 8 5 4 2 2 3 2 2 4 6 4 4 3 1 4 6 10 11 10 12 14 17 20 20
2 1 0 4 5 2 4 10 13 11 8 6 8 10 6 3 6 11 10 5 5 6 5 5 6 6 6 7 5 4 5 5 5 4 4 4 4 4 4 5 4 4 5 4 4 4 5 5 3 3 4 4 3 5 5 5 6 6 6 6 6 5 6 9 8 6 5 3 4 3 3 5 7 7 4 3 3 4 6 7 10 10 8 11 14 17 20 20
3 2 1 3 3 3 9 14 12 8 6 8 11 6 3 7 11 10 6 5 6 5 4 6 6 7 7 6 6 6 5 4 4 3 3 3 4 5 4 5 5 4 5 4 3 5 5 4 3 3 4 5 5 6 6 7 6 5 5 6 6 5 6 9 10 8 5 4 7 7 6 6 4 2 2 4 4 6 7 6 7 9 8 11 14 17 19 20
3 1 0 3 3 5 13 14 8 6 9 11 7 2 6 12 9 5 4 6 5 4 6 7 7 7 6 5 6 6 5 4 3 3 3 3 4 5 5 5 5 4 5 4 3 4 4 3 4 5 6 6 6 7 7 7 5 4 6 7 7 7 8 9 9 7 5 4 6 6 4 3 3 2 3 4 5 6 6 4 5 8 8 10 13 16 19 20
4 1 1 3 3 9 15 10 6 10 11 6 3 7 11 9 4 3 5 5 4 4 6 6 6 5 5 5 5 4 4 3 2 3 4 4 3 4 5 4 4 5 4 3 3 3 4 6 6 6 7 7 7 6 6 5 4 5 6 6 6 7 8 8 8 7 7 6 4 2 0 2 4 4 4 5 5 4 3 3 6 8 9 10 12 16 18 20
4 2 2 2 6 14 13 8 10 11 6 3 8 12 9 5 4 5 5 4 4 6 8 8 7 6 5 4 4 3 3 3 2 2 3 5 4 3 5 5 4 5 3 3 4 5 7 7 8 9 7 7 6 5 6 5 4 6 6 5 5 7 8 8 9 9 8 5 4 3 1 3 4 3 2 2 2 3 3 5 7 7 8 9 12 16 18 19
2 4 3 2 10 15 9 9 12 6 1 8 13 9 5 4 5 7 4 3 8 10 9 8 7 6 5 3 3 1 2 2 3 3 2 4 6 4 5 5 4 5 5 5 6 8 9 7 8 9 7 6 6 6 6 4 4 6 5 4 5 6 9 10 8 8 6 4 5 6 6 7 4 1 0 1 3 4 4 6 6 6 8 9 12 16 18 18
2 6 3 4 14 13 8 12 8 1 5 12 9 5 5 5 6 7 4 7 12 9 5 6 5 4 4 3 3 2 2 1 2 5 4 4 6 6 4 4 5 6 7 7 8 8 8 9 9 7 6 6 6 6 5 4 5 6 4 5 5 5 8 9 5 5 7 8 10 9 7 5 1 1 4 5 4 3 4 8 7 6 6 10 14 15 17 18
4 6 4 9 14 9 11 11 2 4 12 10 4 4 6 6 7 6 5 11 12 6 4 5 3 2 2 2 2 2 3 2 2 5 5 4 6 6 4 5 7 7 7 7 8 7 8 8 7 6 6 6 6 5 4 4 5 5 5 6 5 4 6 6 5 7 10 11 9 7 4 2 2 6 7 4 4 5 8 9 5 5 7 10 13 13 16 19
7 6 7 11 11 9 11 5 2 11 11 5 3 4 4 5 6 6 8 11 8 4 4 2 1 2 2 2 2 1 2 4 4 4 4 4 5 7 5 6 7 6 6 6 5 6 7 6 5 5 6 7 6 5 4 3 5 6 5 4 4 5 6 7 8 7 7 7 6 6 6 6 7 9 6 4 7 9 6 3 3 7 9 10 11 12 16 18
9 7 10 12 10 10 8 3 8 13 6 3 4 3 3 4 6 8 10 10 6 5 4 2 3 3 3 4 4 3 1 2 5 4 3 4 6 7 5 5 6 4 3 4 4 4 5 5 4 4 6 8 6 5 5 3 6 6 3 4 5 6 8 10 9 6 6 7 7 6 7 9 9 7 5 6 8 5 1 3 6 8 9 8 11 13 15 18
9 10 13 11 10 9 4 6 12 9 3 3 4 5 5 5 8 9 9 8 5 4 3 3 3 1 2 2 4 7 2 -0 4 4 3 4 6 6 4 4 5 3 2 3 4 4 5 5 4 4 5 6 5 6 6 4 5 5 4 6 5 5 8 9 7 5 6 8 7 5 6 9 7 6 8 7 5 2 3 9 9 5 6 7 10 14 16 19
11 13 12 9 9 6 5 10 9 4 3 4 5 6 5 7 10 9 7 5 3 3 3 3 3 1 2 2 2 6 6 2 1 4 5 4 4 4 3 3 4 3 2 3 5 4 5 6 4 4 4 6 7 6 5 4 4 4 5 5 5 6 9 7 6 4 5 5 4 4 6 10 8 6 7 3 2 6 8 12 11 3 4 7 11 14 17 19
14 12 9 9 7 4 8 11 5 3 4 4 6 6 6 11 12 9 6 5 4 4 3 3 4 3 4 4 1 2 6 6 2 3 7 3 2 4 2 2 4 4 2 4 5 4 5 6 5 4 5 6 6 5 5 5 5 5 4 5 6 7 6 4 3 2 3 4 6 7 8 11 9 3 5 5 6 11 10 8 8 5 3 7 12 14 17 20
11 8 9 8 5 7 11 7 2 4 5 6 8 7 9 10 8 7 6 6 6 4 3 3 2 4 5 4 3 0 2 7 5 3 6 4 2 3 2 1 4 4 3 4 5 4 5 6 5 4 5 6 5 5 6 5 5 5 4 5 5 3 3 2 2 2 4 5 9 10 6 8 10 4 4 8 9 10 9 4 4 5 4 6 11 16 18 19
7 8 9 6 7 10 8 3 3 4 5 7 8 8 10 7 6 7 4 4 4 1 2 4 2 4 4 3 5 3 -1 4 7 4 4 5 2 1 2 1 3 4 3 4 4 4 5 5 5 5 5 5 4 6 6 5 5 5 4 3 0 -0 0 0 2 4 6 6 8 7 3 5 10 8 6 7 8 7 6 4 3 5 5 5 9 15 18 18
7 9 8 7 10 8 3 1 3 4 6 8 8 9 9 7 6 5 2 4 4 2 5 5 3 3 3 3 4 5 2 1 6 6 5 5 2 0 1 2 2 3 4 5 4 4 5 6 6 5 6 6 5 6 6 5 5 6 5 3 1 2 1 0 1 4 8 7 4 4 6 4 6 9 8 6 7 5 4 6 6 5 6 6 7 12 17 17
9 8 7 9 7 3 1 2 4 6 8 9 9 10 9 7 6 4 4 6 5 5 4 2 3 3 2 3 2 4 5 1 4 7 5 4 2 1 2 3 2 3 4 4 4 5 6 6 6 5 6 7 5 6 6 5 5 6 7 4 3 3 2 1 3 5 10 8 1 1 4 4 5 8 7 5 5 5 5 5 6 6 6 7 6 9 13 14
8 8 9 7 2 1 2 4 7 8 9 9 9 9 8 7 6 4 3 3 3 6 5 3 6 5 3 3 1 2 4 2 3 5 5 4 3 2 3 4 4 4 4 3 3 5 4 5 5 6 6 6 6 6 6 6 6 6 8 5 2 3 2 1 2 2 5 6 1 -0 1 3 6 7 7 5 3 4 5 3 5 6 5 7 7 7 11 14
8 9 6 2 1 2 5 7 8 8 9 9 8 7 6 5 4 2 1 3 4 5 5 5 5 4 3 3 2 2 2 2 2 4 5 4 3 3 3 5 5 4 4 3 3 3 4 4 5 5 6 6 6 6 6 6 6 6 9 7 5 7 7 6 6 3 4 6 -1 -2 2 4 5 7 7 5 3 4 6 4 5 6 4 4 6 7 11 16
8 5 3 1 2 5 6 8 9 9 10 9 7 7 6 5 4 3 4 5 5 3 4 6 5 3 2 2 3 3 2 1 1 2 3 3 3 3 3 5 5 4 3 3 3 4 5 5 6 6 7 7 6 6 6 6 6 6 10 8 5 8 7 5 5 2 2 4 1 3 7 4 4 5 4 4 4 4 5 5 3 4 4 3 4 8 9 12
4 2 2 2 3 6 7 8 9 9 9 8 8 7 5 6 6 4 5 5 4 3 5 5 4 3 2 2 4 4 3 2 1 1 2 2 3 2 3 5 5 3 2 3 4 5 5 5 6 7 7 7 6 6 7 7 6 7 9 7 6 8 6 1 0 0 1 6 10 10 5 -0 2 3 4 6 5 2 2 3 3 2 5 5 3 5 7 8
2 3 2 3 6 8 8 9 10 9 8 8 7 6 5 6 5 4 5 5 4 5 4 2 2 3 2 3 4 4 4 3 2 2 3 4 3 2 3 4 5 4 2 3 4 5 5 6 7 7 7 7 6 7 8 7 6 7 8 7 7 9 7 3 3 3 2 5 7 5 -1 -1 3 3 5 7 5 2 1 2 5 5 4 6 5 5 6 8
3 3 4 7 10 10 9 9 9 8 8 6 5 6 6 5 5 4 4 4 4 5 4 3 3 3 3 4 4 4 4 3 3 2 4 5 5 3 3 4 5 4 2 3 4 5 5 6 7 6 6 7 6 7 8 7 6 8 9 7 5 7 9 9 8 4 1 1 2 5 4 3 4 4 4 6 4 5 5 2 5 6 4 4 5 6 7 8
4 5 8 10 10 9 8 8 7 7 7 5 5 7 6 4 6 6 5 5 5 5 4 4 4 4 4 4 3 4 5 4 4 4 5 6 5 4 3 3 4 4 3 3 4 5 6 6 7 6 6 8 6 6 7 7 7 9 8 5 4 8 11 12 10 7 7 6 3 6 4 -0 3 4 3 4 4 4 6 4 2 2 3 3 2 4 6 7
7 8 10 10 9 8 8 7 6 6 6 5 6 7 6 5 6 6 6 6 5 5 5 5 5 5 5 5 5 5 5 5 5 5 5 5 6 5 3 3 3 4 4 3 4 5 5 6 7 7 7 8 7 7 8 7 7 8 8 6 5 7 10 10 8 5 7 6 3 6 6 1 3 4 2 4 5 2 3 4 3 2 2 2 1 2 5 6
9 10 10 9 8 7 7 6 5 6 6 4 6 7 6 7 7 6 7 6 5 5 5 5 5 5 5 6 6 6 6 6 6 6 6 5 6 5 4 4 3 4 5 4 4 5 6 6 7 7 7 7 7 8 8 7 8 10 9 7 5 6 8 10 10 7 7 6 4 6 6 0 -1 2 3 4 5 2 1 1 2 3 3 3 3 2 3 5
9 10 9 8 7 7 7 6 4 6 6 5 7 7 6 7 7 5 6 6 5 5 6 6 5 6 6 5 6 6 6 7 7 7 6 6 6 6 5 4 3 4 5 4 4 5 5 6 6 7 7 7 7 8 7 7 8 10 9 6 5 6 7 9 11 11 9 5 2 4 5 3 2 4 4 4 5 4 3 3 2 2 4 4 4 3 3 5
8 9 8 6 6 6 6 6 6 7 6 6 8 7 6 7 5 5 6 6 6 6 6 6 5 5 6 5 5 5 5 6 8 7 7 6 6 6 6 4 3 4 4 4 5 5 5 6 6 7 7 7 7 8 8 7 7 10 8 4 4 6 7 10 11 10 9 5 2 5 8 6 4 4 3 3 6 5 4 5 3 3 5 5 4 4 4 4
8 8 6 6 7 7 6 5 6 7 7 7 8 7 6 7 5 6 7 6 6 6 6 6 6 6 6 6 6 6 5 6 7 7 7 6 6 6 6 5 4 4 4 5 5 5 5 6 6 7 7 7 7 7 8 7 7 9 7 4 5 6 6 8 9 9 10 7 3 5 9 8 3 4 4 2 5 6 4 5 4 4 6 5 4 4 3 3
8 7 5 6 8 8 8 6 5 8 8 7 8 6 6 8 7 7 8 8 7 7 7 7 8 7 7 7 7 6 6 6 6 7 7 6 6 6 6 5 5 5 4 5 5 5 6 6 5 6 5 5 6 6 8 8 7 9 9 7 6 6 5 6 8 9 9 11 9 3 8 12 5 2 4 2 4 6 5 5 5 4 5 5 5 4 3 3
8 7 5 6 8 7 9 8 7 8 8 6 8 7 7 9 8 7 9 9 8 8 8 8 9 9 9 9 8 6 7 6 6 6 7 7 7 7 6 5 5 5 4 5 5 5 6 6 6 6 5 5 6 7 7 7 8 11 10 6 4 5 5 4 7 9 8 13 14 1 1 11 8 3 4 3 3 5 5 5 5 4 4 5 4 4 4 3
7 7 6 7 9 8 9 8 7 8 7 6 6 7 7 8 8 8 9 9 8 9 9 9 10 10 10 9 8 7 7 6 6 6 6 6 7 7 7 6 5 5 5 5 5 6 7 7 7 7 6 6 6 7 7 6 8 11 10 6 4 5 6 4 6 9 6 9 15 7 1 8 11 7 3 2 4 5 5 4 4 5 5 4 5 4 4 4
8 8 7 8 9 7 8 8 7 7 7 6 6 7 7 7 9 9 9 8 8 8 8 9 10 11 10 10 9 8 7 6 6 6 6 6 7 7 7 6 5 5 5 5 5 6 6 6 7 7 6 6 7 8 7 6 8 11 10 7 4 4 6 4 4 8 6 5 11 13 8 6 10 10 5 4 6 5 3 4 4 5 5 4 5 5 4 5
8 7 7 8 8 7 8 8 7 7 7 6 6 7 7 7 8 8 8 9 8 8 8 9 10 11 11 10 10 8 7 7 6 6 6 7 7 7 7 7 6 5 5 5 6 6 6 7 8 8 6 6 7 8 8 7 8 11 10 7 6 5 5 4 3 5 7 5 6 10 12 9 9 11 9 7 7 5 4 4 4 5 5 4 5 6 5 6
7 6 6 7 7 7 8 7 7 7 6 6 6 6 6 6 6 7 7 8 9 8 9 9 10 12 11 10 10 9 7 7 6 6 7 7 7 7 7 7 6 5 5 5 5 5 6 7 7 8 7 7 7 8 8 7 9 11 9 7 6 6 5 5 4 4 5 6 6 8 12 12 9 11 14 10 6 5 5 5 5 5 5 5 5 5 6 6
6 6 7 7 7 7 7 5 6 6 5 5 5 5 5 5 5 6 6 7 8 7 9 10 11 12 11 10 10 9 8 7 6 7 8 7 7 7 7 7 6 6 6 5 5 5 6 7 6 6 8 7 7 8 8 9 10 9 8 7 6 6 7 6 6 7 6 6 8 8 10 12 12 13 14 10 6 8 8 6 5 5 4 5 6 5 6 6
6 6 7 7 5 6 6 5 5 5 4 4 5 5 5 4 4 4 5 6 5 5 7 9 10 12 12 10 10 9 9 7 7 7 7 7 7 7 7 7 6 5 5 5 5 5 5 7 6 5 7 6 6 8 9 9 10 9 7 7 6 6 8 5 5 7 7 5 8 9 9 10 12 13 14 12 9 10 11 7 7 7 5 5 5 4 5 5
6 5 6 6 5 5 6 6 5 5 4 4 4 5 4 4 3 3 4 4 3 4 5 6 8 10 11 10 10 10 9 8 8 8 7 7 7 6 7 7 6 5 5 5 6 5 5 6 5 5 7 7 6 8 10 9 10 10 8 7 7 6 7 7 7 8 8 8 10 10 8 8 9 9 12 14 11 11 12 10 8 9 6 4 5 5 4 5
Height
5800 5802 5802 5803 5804 5806 5807 5808 5810 5811 5813 5814 5816 5817 5817 5818 5819 5820 5821 5822 5822 5823 5822 5822 5822 5822 5822 5822 5822 5822 5822 5822 5822 5821 5821 5821 5820 5820 5819 5819 5818 5818 5817 5816 5816 5815 5814 5814 5813 5812 5811 5810 5809 5807 5806 5805 5804 5802 5801 5799 5797 5795 5794 5792 5791 5789 5788 5786 5782 5779 5776 5774 5771 5769 5766 5762 5759 5757 5753 5750 5747 5743 5738 5736 5731 5726 5724 5721
5800 5802 5802 5803 5805 5806 5807 5809 5810 5812 5813 5815 5816 5817 5817 5818 5819 5820 5821 5822 5822 5822 5822 5822 5822 5822 5823 5823 5823 5822 5822 5822 5822 5822 5821 5821 5821 5820 5820 5819 5819 5818 5817 5816 5816 5815 5814 5813 5812 5812 5811 5809 5808 5807 5805 5804 5802 5801 5799 5797 5796 5794 5793 5791 5789 5787 5785 5783 5780 5776 5774 5771 5768 5765 5761 5758 5755 5751 5748 5746 5743 5739 5734 5732 5728 5721 5718 5714
5801 5802 5803 5804 5805 5806 5808 5809 5811 5812 5814 5815 5816 5817 5817 5818 5819 5821 5822 5822 5822 5822 5822 5822 5823 5823 5823 5823 5823 5823 5822 5822 5822 5821 5821 5821 5821 5821 5820 5820 5819 5818 5817 5817 5816 5815 5814 5813 5812 5811 5810 5809 5807 5806 5805 5803 5801 5800 5798 5796 5794 5793 5791 5790 5788 5786 5783 5781 5778 5774 5771 5768 5765 5762 5757 5754 5751 5747 5744 5740 5737 5733 5729 5727 5724 5717 5712 5708
5801 5802 5803 5804 5805 5806 5808 5809 5811 5813 5814 5815 5816 5817 5818 5819 5820 5821 5822 5822 5822 5822 5822 5823 5823 5823 5823 5823 5823 5823 5822 5822 5822 5822 5822 5822 5822 5821 5820 5820 5819 5818 5817 5816 5815 5814 5814 5813 5812 5811 5810 5808 5807 5805 5804 5802 5801 5799 5797 5795 5793 5791 5790 5788 5786 5783 5781 5778 5775 5771 5768 5765 5762 5759 5755 5750 5747 5744 5741 5736 5731 5727 5722 5718 5716 5711 5706 5701
5801 5802 5803 5804 5805 5807 5809 5810 5812 5813 5814 5815 5816 5817 5818 5819 5820 5821 5822 5821 5822 5822 5823 5823 5823 5823 5823 5823 5823 5823 5823 5823 5822 5822 5822 5822 5822 5821 5821 5820 5819 5818 5817 5816 5815 5814 5814 5813 5812 5811 5809 5808 5807 5805 5803 5801 5800 5797 5795 5793 5791 5790 5788 5786 5783 5781 5778 5775 5773 5769 5765 5762 5759 5756 5752 5747 5743 5740 5737 5733 5728 5723 5717 5712 5708 5703 5699 5694
5801 5802 5803 5805 5806 5807 5809 5810 5812 5813 5814 5815 5816 5817 5818 5819 5820 5821 5821 5821 5822 5823 5823 5823 5823 5823 5824 5823 5823 5823 5823 5823 5823 5823 5823 5823 5822 5822 5821 5820 5819 5818 5817 5816 5815 5814 5814 5813 5811 5810 5809 5807 5806 5804 5802 5800 5798 5796 5794 5792 5789 5788 5786 5784 5781 5778 5775 5773 5770 5766 5763 5759 5755 5753 5750 5745 5741 5737 5733 5729 5724 5719 5713 5707 5703 5697 5692 5686
5802 5803 5804 5805 5806 5808 5809 5811 5812 5813 5815 5816 5817 5818 5818 5819 5820 5821 5821 5822 5822 5823 5823 5823 5823 5824 5823 5824 5824 5824 5824 5824 5824 5824 5823 5823 5823 5822 5821 5820 5819 5818 5817 5816 5815 5814 5813 5812 5811 5810 5808 5807 5805 5804 5802 5799 5797 5795 5792 5790 5788 5786 5784 5781 5779 5775 5772 5770 5767 5763 5759 5756 5752 5749 5746 5742 5737 5733 5729 5724 5720 5715 5709 5703 5697 5691 5685 5679
5802 5804 5805 5806 5807 5808 5810 5812 5813 5814 5815 5816 5817 5818 5819 5819 5820 5821 5821 5822 5822 5823 5823 5823 5823 5823 5824 5824 5824 5824 5824 5824 5825 5824 5824 5823 5823 5822 5821 5820 5819 5818 5817 5816 5815 5814 5813 5812 5811 5810 5808 5807 5805 5803 5801 5799 5796 5794 5791 5789 5786 5784 5781 5779 5776 5773 5769 5767 5764 5760 5756 5753 5749 5745 5742 5738 5734 5729 5724 5720 5715 5710 5704 5698 5692 5685 5679 5672
5803 5804 5805 5807 5808 5810 5811 5812 5814 5815 5816 5817 5818 5818 5819 5819 5820 5821 5821 5822 5822 5823 5823 5824 5824 5824 5824 5825 5825 5825 5825 5825 5825 5825 5824 5823 5823 5822 5821 5820 5819 5818 5817 5816 5815 5814 5813 5812 5811 5809 5808 5806 5804 5802 5800 5798 5795 5792 5789 5787 5785 5782 5779 5777 5773 5769 5767 5763 5761 5757 5753 5749 5746 5742 5737 5733 5729 5725 5720 5715 5710 5705 5699 5693 5686 5679 5672 5665
5804 5805 5806 5808 5809 5811 5812 5813 5814 5815 5816 5817 5818 5819 5819 5820 5821 5821 5822 5822 5823 5823 5824 5824 5824 5825 5825 5825 5825 5825 5825 5825 5825 5825 5824 5823 5823 5822 5821 5820 5819 5818 5817 5816 5815 5814 5813 5812 5810 5809 5807 5805 5803 5801 5799 5797 5794 5791 5788 5785 5782 5780 5776 5773 5771 5767 5764 5760 5757 5754 5749 5745 5743 5739 5734 5729 5725 5720 5716 5710 5705 5700 5694 5687 5680 5673 5665 5657
5805 5806 5808 5809 5810 5811 5813 5814 5815 5816 5817 5817 5818 5819 5820 5821 5821 5822 5822 5823 5823 5824 5824 5825 5825 5825 5826 5826 5826 5826 5826 5826 5826 5825 5824 5823 5823 5822 5821 5820 5819 5818 5817 5816 5815 5814 5813 5811 5810 5808 5806 5805 5803 5800 5798 5796 5793 5790 5786 5783 5780 5778 5774 5771 5768 5764 5761 5757 5754 5751 5746 5741 5739 5736 5731 5726 5721 5716 5711 5706 5700 5694 5688 5681 5674 5666 5658 5649
5807 5807 5809 5810 5811 5812 5813 5815 5816 5816 5817 5818 5819 5819 5820 5821 5822 5822 5823 5823 5824 5824 5825 5825 5825 5826 5826 5826 5826 5827 5826 5826 5826 5825 5824 5823 5823 5822 5821 5820 5819 5818 5817 5816 5815 5814 5812 5811 5809 5807 5805 5804 5802 5799 5797 5795 5792 5789 5785 5781 5777 5775 5773 5769 5765 5762 5758 5754 5751 5747 5742 5737 5733 5730 5725 5720 5716 5710 5705 5700 5694 5688 5682 5674 5666 5658 5650 5641
5807 5809 5810 5811 5812 5813 5814 5815 5816 5817 5817 5818 5819 5820 5821 5822 5822 5823 5823 5824 5824 5825 5825 5826 5826 5826 5827 5827 5827 5827 5827 5826 5826 5825 5824 5823 5823 5822 5821 5820 5819 5818 5817 5816 5815 5813 5812 5810 5808 5806 5804 5802 5800 5798 5795 5792 5790 5787 5783 5780 5776 5772 5770 5767 5762 5759 5755 5751 5748 5744 5739 5733 5728 5725 5721 5715 5710 5705 5699 5695 5689 5682 5675 5667 5659 5651 5642 5634
5808 5810 5811 5811 5812 5814 5815 5815 5816 5817 5818 5819 5820 5821 5821 5822 5823 5823 5824 5824 5825 5826 5826 5826 5827 5827 5827 5827 5827 5827 5827 5826 5825 5825 5824 5823 5822 5822 5821 5820 5819 5818 5817 5816 5814 5813 5811 5809 5807 5805 5803 5801 5799 5797 5794 5791 5788 5786 5783 5779 5774 5770 5766 5764 5760 5756 5753 5749 5745 5741 5736 5731 5726 5722 5717 5712 5706 5701 5695 5689 5683 5676 5668 5661 5653 5644 5636 5627
5809 5810 5811 5812 5813 5814 5815 5816 5817 5818 5819 5820 5821 5821 5822 5823 5823 5824 5825 5825 5826 5826 5827 5827 5827 5827 5828 5828 5827 5827 5827 5826 5825 5825 5824 5823 5822 5822 5821 5820 5819 5818 5816 5815 5813 5812 5810 5809 5806 5804 5802 5800 5797 5795 5792 5790 5787 5785 5781 5776 5771 5767 5764 5762 5758 5754 5751 5747 5743 5738 5733 5728 5722 5718 5713 5708 5702 5696 5690 5683 5676 5669 5661 5654 5645 5636 5627 5618
5810 5811 5812 5813 5814 5815 5816 5817 5818 5819 5820 5821 5821 5822 5823 5823 5824 5825 5825 5826 5827 5827 5827 5828 5828 5828 5828 5828 5827 5827 5827 5826 5826 5825 5824 5823 5822 5822 5821 5820 5819 5817 5816 5814 5813 5811 5809 5807 5805 5803 5801 5798 5795 5793 5791 5789 5786 5783 5779 5774 5768 5763 5760 5758 5755 5752 5748 5744 5739 5735 5730 5725 5719 5713 5708 5703 5697 5690 5683 5677 5670 5662 5655 5647 5638 5628 5619 5609
5810 5811 5813 5814 5814 5815 5816 5817 5819 5820 5820 5821 5822 5823 5823 5824 5825 5825 5826 5827 5827 5828 5828 5828 5828 5828 5828 5828 5827 5827 5827 5826 5826 5825 5824 5823 5822 5822 5821 5820 5818 5817 5815 5814 5812 5810 5808 5806 5804 5802 5799 5796 5794 5792 5790 5787 5783 5779 5776 5773 5768 5762 5757 5754 5752 5748 5745 5740 5735 5730 5725 5721 5715 5710 5704 5698 5692 5685 5677 5670 5663 5656 5648 5639 5630 5620 5611 5601
5811 5812 5813 5814 5815 5816 5817 5819 5820 5820 5821 5822 5823 5823 5824 5825 5826 5826 5827 5828 5828 5828 5828 5828 5828 5828 5828 5828 5828 5827 5827 5826 5826 5825 5824 5823 5823 5822 5820 5819 5818 5816 5815 5813 5811 5809 5807 5805 5802 5799 5797 5795 5793 5790 5787 5783 5779 5776 5772 5769 5766 5761 5755 5752 5748 5744 5741 5737 5732 5727 5721 5716 5711 5705 5699 5693 5686 5679 5672 5665 5658 5650 5641 5632 5623 5613 5604 5594
5812 5813 5814 5815 5816 5817 5818 5820 5820 5821 5822 5823 5823 5824 5825 5826 5827 5827 5828 5828 5829 5829 5829 5829 5828 5829 5828 5828 5828 5827 5827 5826 5825 5825 5824 5824 5823 5821 5820 5819 5817 5816 5814 5812 5810 5808 5806 5803 5800 5798 5796 5794 5791 5787 5784 5781 5777 5774 5769 5765 5763 5760 5754 5749 5745 5741 5738 5734 5729 5723 5719 5713 5707 5701 5694 5687 5681 5674 5667 5660 5652 5644 5635 5626 5617 5606 5596 5585
5812 5813 5815 5816 5817 5818 5819 5820 5821 5822 5822 5823 5824 5825 5826 5827 5827 5828 5828 5828 5829 5829 5829 5829 5829 5829 5828 5828 5828 5827 5827 5826 5826 5825 5825 5824 5822 5821 5820 5818 5816 5814 5812 5811 5809 5807 5805 5802 5800 5798 5795 5792 5789 5785 5782 5780 5776 5772 5769 5764 5759 5757 5753 5747 5743 5739 5735 5731 5726 5720 5715 5711 5704 5698 5691 5684 5677 5669 5662 5655 5647 5639 5629 5619 5609 5597 5586 5575
5813 5814 5815 5817 5818 5819 5820 5821 5822 5822 5823 5824 5825 5826 5827 5827 5828 5828 5829 5829 5829 5829 5829 5829 5829 5829 5828 5828 5828 5827 5827 5827 5826 5826 5825 5823 5822 5821 5819 5817 5815 5813 5812 5810 5808 5806 5803 5801 5799 5797 5793 5790 5787 5784 5781 5778 5775 5771 5768 5763 5757 5753 5751 5746 5741 5737 5732 5728 5724 5717 5711 5707 5702 5695 5688 5680 5673 5665 5658 5650 5641 5631 5622 5612 5601 5589 5577 5566
5813 5815 5816 5817 5819 5820 5821 5822 5823 5823 5824 5825 5826 5827 5827 5828 5828 5829 5829 5829 5829 5829 5829 5829 5829 5829 5828 5828 5828 5827 5827 5827 5827 5825 5824 5823 5821 5820 5818 5816 5815 5813 5811 5809 5807 5805 5803 5800 5798 5795 5792 5789 5786 5783 5780 5776 5773 5770 5765 5761 5757 5751 5747 5744 5738 5733 5728 5723 5719 5715 5708 5703 5699 5691 5683 5676 5669 5660 5651 5641 5632 5624 5615 5604 5592 5581 5570 5559
5814 5815 5816 5818 5819 5820 5821 5822 5823 5824 5825 5826 5827 5827 5828 5828 5829 5829 5829 5829 5829 5829 5829 5829 5829 5829 5828 5828 5828 5828 5827 5827 5826 5825 5823 5822 5821 5820 5818 5816 5815 5813 5811 5808 5806 5804 5802 5799 5796 5793 5790 5788 5785 5782 5778 5775 5771 5768 5764 5760 5755 5749 5743 5740 5735 5729 5725 5720 5716 5712 5705 5698 5693 5686 5678 5671 5663 5653 5644 5636 5628 5619 5609 5597 5585 5573 5562 5549
5814 5815 5817 5818 5820 5821 5822 5823 5824 5825 5826 5827 5827 5828 5828 5829 5829 5829 5829 5829 5830 5830 5829 5829 5829 5829 5829 5829 5828 5828 5828 5827 5825 5824 5822 5822 5821 5819 5817 5816 5814 5813 5810 5808 5806 5803 5800 5798 5795 5792 5789 5786 5783 5780 5776 5773 5770 5767 5764 5758 5753 5748 5742 5736 5732 5727 5723 5718 5712 5707 5701 5692 5685 5681 5673 5664 5655 5647 5640 5633 5624 5613 5601 5590 5578 5566 5553 5540
5814 5816 5817 5819 5820 5822 5823 5824 5824 5825 5826 5827 5828 5828 5829 5829 5829 5829 5830 5830 5830 5830 5830 5830 5830 5829 5829 5829 5828 5828 5827 5826 5825 5824 5822 5821 5820 5819 5817 5816 5814 5812 5810 5807 5805 5802 5799 5796 5793 5790 5787 5784 5780 5777 5774 5772 5769 5765 5761 5755 5750 5746 5740 5734 5729 5724 5719 5713 5708 5702 5696 5687 5679 5674 5667 5659 5651 5644 5637 5628 5617 5605 5594 5583 5571 5560 5547 5534
5815 5816 5818 5820 5821 5822 5823 5824 5825 5826 5827 5828 5828 5829 5829 5829 5829 5830 5830 5830 5830 5830 5830 5830 5830 5829 5829 5829 5828 5827 5827 5826 5825 5824 5823 5821 5819 5818 5817 5815 5813 5811 5808 5805 5803 5800 5797 5794 5791 5788 5785 5781 5778 5775 5772 5769 5765 5761 5757 5754 5749 5743 5739 5733 5727 5721 5715 5708 5702 5695 5689 5684 5675 5667 5661 5655 5649 5642 5632 5622 5610 5599 5588 5577 5565 5553 5540 5528
5815 5817 5819 5820 5822 5823 5824 5825 5826 5827 5828 5828 5829 5829 5829 5830 5830 5830 5830 5830 5830 5830 5830 5830 5830 5830 5829 5829 5828 5827 5827 5826 5825 5824 5822 5821 5819 5817 5816 5814 5812 5809 5807 5804 5802 5799 5795 5792 5789 5785 5782 5779 5776 5773 5770 5766 5762 5759 5755 5751 5747 5742 5737 5732 5724 5717 5710 5704 5698 5690 5684 5680 5674 5667 5661 5655 5646 5637 5626 5614 5604 5595 5584 5573 5561 5548 5536 5523
5816 5818 5819 5821 5822 5824 5825 5826 5827 5828 5828 5829 5829 5830 5830 5830 5830 5830 5830 5830 5830 5830 5830 5830 5830 5830 5829 5829 5828 5828 5827 5826 5825 5823 5822 5820 5818 5817 5815 5813 5810 5808 5805 5803 5800 5797 5794 5790 5787 5784 5781 5777 5774 5771 5766 5763 5759 5756 5752 5748 5744 5740 5735 5730 5722 5714 5708 5702 5695 5688 5683 5679 5674 5666 5657 5649 5639 5627 5616 5606 5598 5590 5580 5569 5556 5544 5532 5520
5817 5818 5820 5822 5823 5824 5826 5827 5828 5829 5829 5829 5830 5830 5830 5830 5830 5831 5831 5831 5831 5830 5830 5830 5830 5830 5829 5829 5828 5827 5827 5825 5824 5823 5821 5820 5818 5816 5814 5811 5809 5807 5805 5802 5799 5796 5793 5790 5786 5783 5779 5775 5772 5768 5764 5760 5756 5753 5749 5746 5742 5737 5732 5728 5722 5713 5705 5698 5692 5688 5683 5677 5670 5662 5650 5640 5630 5619 5610 5602 5592 5584 5575 5564 5551 5540 5529 5518
5818 5819 5821 5823 5824 5825 5827 5828 5829 5829 5830 5830 5830 5830 5830 5831 5831 5831 5831 5831 5831 5831 5830 5830 5830 5830 5829 5829 5828 5827 5826 5825 5824 5823 5821 5820 5818 5815 5813 5809 5807 5806 5804 5802 5799 5795 5792 5789 5786 5782 5778 5774 5770 5766 5762 5758 5754 5751 5747 5742 5737 5733 5728 5724 5719 5711 5703 5696 5691 5686 5680 5672 5663 5655 5646 5636 5627 5619 5610 5601 5592 5582 5571 5559 5549 5538 5528 5516
5819 5820 5822 5824 5825 5827 5828 5829 5829 5829 5830 5830 5830 5831 5831 5831 5831 5831 5831 5831 5831 5831 5831 5830 5830 5829 5829 5828 5828 5827 5826 5824 5823 5822 5820 5818 5816 5814 5812 5810 5808 5806 5803 5801 5798 5794 5791 5788 5784 5780 5776 5771 5768 5764 5761 5756 5751 5747 5742 5738 5733 5729 5723 5718 5713 5709 5701 5694 5688 5681 5675 5668 5658 5650 5643 5635 5627 5618 5609 5600 5590 5579 5568 5558 5547 5534 5521 5509
5820 5821 5823 5825 5826 5827 5828 5829 5829 5830 5830 5830 5831 5831 5831 5831 5831 5831 5831 5831 5831 5831 5831 5830 5830 5829 5829 5828 5827 5826 5825 5824 5822 5821 5819 5817 5815 5814 5812 5810 5808 5805 5802 5798 5795 5791 5788 5785 5782 5778 5774 5769 5765 5761 5757 5752 5747 5743 5739 5735 5730 5725 5721 5715 5710 5706 5701 5694 5686 5678 5670 5664 5657 5650 5641 5633 5624 5615 5605 5595 5585 5576 5567 5555 5541 5527 5514 5502
5821 5823 5824 5826 5827 5828 5829 5829 5830 5830 5830 5831 5831 5831 5831 5831 5831 5831 5831 5831 5831 5831 5830 5830 5830 5829 5828 5828 5827 5826 5824 5823 5822 5820 5819 5817 5815 5813 5811 5809 5806 5803 5799 5795 5792 5788 5785 5782 5778 5775 5771 5766 5761 5756 5752 5748 5743 5739 5735 5731 5725 5720 5715 5710 5705 5701 5698 5692 5683 5675 5667 5660 5654 5647 5638 5629 5620 5610 5600 5591 5582 5573 5560 5546 5534 5523 5512 5501
5822 5824 5825 5827 5828 5829 5829 5830 5830 5830 5831 5831 5831 5831 5831 5831 5831 5831 5831 5831 5831 5831 5830 5830 5829 5829 5828 5827 5826 5825 5824 5823 5821 5820 5818 5816 5814 5812 5809 5807 5804 5801 5798 5794 5791 5787 5783 5780 5776 5771 5767 5763 5758 5753 5749 5745 5741 5737 5733 5728 5723 5717 5710 5705 5700 5694 5690 5687 5679 5670 5662 5654 5646 5640 5633 5625 5616 5607 5598 5589 5578 5564 5551 5540 5531 5522 5512 5501
5824 5825 5826 5827 5828 5829 5829 5830 5830 5831 5831 5831 5831 5832 5832 5832 5831 5831 5831 5831 5831 5831 5830 5830 5829 5828 5827 5827 5826 5825 5824 5822 5821 5819 5817 5815 5813 5810 5808 5805 5802 5799 5796 5793 5789 5785 5781 5778 5774 5770 5766 5761 5757 5752 5747 5743 5739 5734 5730 5726 5722 5716 5710 5705 5699 5691 5684 5680 5674 5664 5657 5650 5643 5638 5631 5622 5613 5604 5593 5581 5569 5557 5549 5540 5530 5520 5510 5499
5825 5826 5827 5828 5829 5829 5830 5830 5831 5831 5831 5831 5832 5832 5832 5832 5832 5831 5831 5831 5831 5830 5830 5829 5828 5828 5827 5826 5825 5824 5823 5821 5820 5818 5816 5814 5812 5809 5807 5804 5801 5798 5794 5791 5787 5783 5779 5775 5772 5769 5765 5760 5756 5751 5746 5741 5736 5732 5727 5723 5719 5714 5710 5703 5696 5688 5679 5673 5669 5663 5657 5651 5644 5636 5628 5618 5607 5596 5585 5575 5566 5558 5549 5539 5529 5518 5506 5493
5826 5827 5828 5829 5829 5830 5830 5831 5831 5831 5832 5832 5832 5832 5832 5832 5832 5831 5831 5831 5831 5830 5829 5829 5828 5827 5826 5825 5824 5823 5822 5820 5819 5817 5815 5813 5810 5808 5805 5802 5799 5796 5793 5789 5785 5782 5778 5774 5770 5767 5763 5759 5754 5750 5745 5740 5735 5730 5724 5719 5715 5712 5707 5700 5691 5685 5679 5673 5670 5663 5653 5646 5639 5630 5621 5613 5603 5593 5584 5576 5568 5560 5550 5539 5528 5516 5503 5490
5827 5828 5828 5829 5829 5830 5830 5831 5831 5832 5832 5832 5832 5832 5832 5832 5832 5831 5831 5831 5830 5830 5829 5828 5827 5826 5825 5824 5823 5822 5820 5819 5817 5815 5813 5811 5809 5807 5804 5801 5798 5795 5791 5787 5784 5780 5776 5773 5769 5765 5761 5757 5752 5747 5744 5740 5734 5729 5723 5718 5713 5707 5702 5696 5689 5682 5676 5670 5666 5661 5651 5641 5634 5626 5618 5610 5602 5593 5586 5577 5568 5558 5548 5537 5525 5513 5502 5490
5827 5828 5829 5829 5830 5830 5831 5831 5832 5832 5832 5832 5832 5832 5832 5832 5832 5831 5831 5830 5830 5829 5828 5827 5827 5826 5824 5823 5822 5820 5819 5817 5815 5814 5812 5810 5807 5805 5802 5799 5796 5793 5790 5786 5782 5778 5775 5771 5767 5763 5759 5755 5751 5746 5741 5736 5732 5727 5722 5717 5710 5704 5698 5694 5689 5680 5672 5665 5660 5656 5649 5639 5630 5623 5616 5608 5600 5592 5584 5575 5564 5554 5543 5533 5522 5511 5500 5489
5828 5828 5829 5830 5830 5831 5831 5832 5832 5832 5832 5832 5832 5832 5832 5832 5831 5831 5830 5830 5829 5828 5827 5826 5825 5824 5823 5822 5820 5819 5817 5815 5814 5812 5810 5808 5805 5803 5800 5798 5795 5791 5788 5784 5781 5777 5773 5769 5766 5762 5757 5753 5749 5744 5739 5733 5728 5723 5718 5713 5707 5701 5695 5691 5687 5680 5672 5664 5657 5651 5646 5639 5631 5623 5613 5605 5597 5588 5578 5569 5560 5551 5541 5530 5520 5510 5500 5490
5828 5829 5830 5830 5831 5831 5832 5832 5832 5832 5832 5832 5832 5832 5832 5831 5831 5830 5830 5829 5828 5828 5827 5825 5824 5823 5822 5820 5819 5817 5816 5814 5812 5810 5808 5806 5803 5801 5798 5796 5793 5790 5786 5783 5779 5775 5771 5767 5764 5760 5756 5751 5747 5743 5738 5733 5728 5722 5715 5710 5704 5698 5693 5687 5682 5678 5670 5663 5656 5650 5644 5637 5629 5621 5612 5603 5593 5584 5574 5566 5559 5550 5540 5530 5520 5510 5501 5491
5829 5829 5830 5831 5831 5832 5832 5832 5832 5832 5832 5832 5832 5832 5832 5831 5831 5830 5829 5828 5828 5827 5826 5824 5823 5822 5821 5819 5818 5816 5814 5812 5810 5808 5806 5804 5801 5799 5796 5794 5791 5788 5784 5781 5777 5773 5769 5765 5762 5758 5754 5750 5746 5743 5738 5732 5727 5722 5715 5708 5702 5696 5691 5685 5680 5676 5671 5663 5654 5648 5642 5632 5623 5616 5609 5600 5592 5584 5576 5567 5557 5548 5539 5529 5521 5512 5503 5492
5829 5830 5830 5831 5831 5832 5832 5832 5832 5832 5832 5832 5832 5832 5831 5831 5830 5829 5828 5828 5827 5826 5824 5823 5822 5821 5819 5818 5816 5815 5813 5811 5809 5807 5804 5802 5799 5797 5794 5792 5789 5786 5782 5779 5775 5771 5767 5762 5758 5755 5751 5748 5743 5738 5734 5729 5724 5719 5713 5706 5700 5694 5689 5685 5679 5674 5670 5664 5654 5646 5642 5634 5625 5617 5609 5602 5595 5587 5577 5567 5557 5549 5540 5530 5521 5512 5501 5489
5830 5830 5831 5831 5832 5832 5832 5832 5832 5832 5832 5832 5831 5831 5831 5830 5829 5828 5828 5827 5825 5824 5823 5822 5821 5819 5818 5816 5815 5813 5811 5809 5807 5805 5802 5800 5797 5795 5792 5790 5787 5784 5780 5777 5773 5769 5765 5759 5754 5750 5746 5742 5737 5732 5728 5724 5719 5714 5709 5704 5698 5693 5688 5683 5678 5672 5666 5661 5653 5643 5638 5634 5626 5617 5610 5603 5595 5586 5577 5568 5558 5550 5541 5533 5522 5511 5498 5488
5830 5831 5831 5831 5832 5832 5832 5832 5832 5832 5832 5831 5831 5831 5830 5829 5828 5828 5827 5826 5824 5823 5822 5820 5819 5818 5816 5815 5813 5811 5809 5807 5805 5803 5801 5798 5796 5793 5790 5787 5785 5782 5778 5775 5772 5768 5764 5759 5753 5748 5743 5739 5734 5729 5724 5721 5717 5712 5708 5704 5698 5693 5687 5681 5675 5669 5662 5657 5652 5642 5634 5631 5625 5616 5609 5601 5593 5585 5576 5568 5560 5552 5542 5532 5521 5509 5498 5487
5830 5831 5831 5831 5831 5832 5832 5832 5832 5832 5831 5831 5830 5830 5829 5828 5827 5827 5825 5824 5823 5822 5820 5819 5817 5816 5814 5813 5811 5809 5807 5805 5803 5801 5799 5796 5794 5791 5788 5785 5782 5780 5776 5773 5770 5766 5763 5759 5753 5748 5743 5739 5734 5730 5725 5720 5716 5712 5707 5703 5698 5691 5685 5678 5673 5667 5660 5655 5651 5643 5632 5626 5622 5615 5606 5598 5590 5583 5576 5569 5561 5552 5541 5530 5518 5507 5497 5487
5831 5831 5831 5831 5831 5831 5831 5831 5831 5831 5831 5830 5830 5829 5828 5827 5826 5825 5824 5823 5822 5820 5819 5817 5816 5814 5812 5811 5809 5807 5805 5804 5801 5799 5797 5794 5792 5789 5786 5784 5781 5778 5774 5771 5768 5764 5761 5758 5754 5748 5743 5739 5734 5730 5725 5720 5715 5711 5706 5702 5697 5690 5683 5677 5671 5666 5659 5652 5647 5641 5631 5623 5617 5611 5603 5595 5588 5582 5575 5567 5558 5547 5536 5526 5515 5506 5497 5487
5831 5831 5831 5831 5831 5831 5831 5831 5831 5830 5830 5829 5829 5828 5827 5826 5825 5824 5823 5822 5820 5819 5817 5816 5814 5812 5811 5809 5807 5805 5803 5802 5799 5797 5795 5792 5790 5787 5784 5782 5779 5775 5772 5769 5765 5762 5758 5755 5752 5748 5742 5737 5733 5728 5724 5719 5714 5709 5705 5700 5695 5690 5682 5676 5670 5664 5658 5650 5643 5638 5631 5622 5615 5609 5600 5591 5585 5578 5571 5562 5553 5543 5534 5525 5517 5508 5499 5489
5831 5831 5831 5831 5831 5831 5831 5830 5830 5830 5829 5829 5828 5827 5826 5825 5824 5823 5822 5820 5819 5817 5816 5814 5812 5811 5809 5807 5805 5803 5801 5799 5797 5795 5793 5790 5787 5785 5782 5780 5777 5773 5770 5767 5763 5759 5756 5752 5749 5747 5742 5736 5731 5727 5722 5718 5712 5707 5703 5698 5693 5688 5681 5674 5668 5662 5656 5649 5641 5634 5628 5621 5612 5605 5597 5589 5583 5576 5568 5559 5550 5542 5535 5527 5519 5510 5500 5491
5830 5831 5831 5831 5830 5830 5830 5830 5829 5829 5828 5828 5827 5826 5825 5824 5823 5822 5820 5819 5817 5816 5814 5812 5811 5809 5807 5805 5803 5801 5799 5797 5795 5793 5790 5788 5785 5783 5780 5777 5774 5771 5768 5764 5761 5757 5753 5750 5746 5743 5740 5735 5730 5725 5720 5715 5710 5705 5701 5696 5691 5686 5680 5672 5665 5660 5653 5647 5640 5632 5625 5619 5611 5603 5596 5589 5582 5575 5567 5558 5550 5542 5534 5528 5519 5511 5502 5493
5830 5830 5830 5830 5830 5830 5829 5829 5828 5828 5827 5826 5826 5825 5824 5823 5822 5820 5819 5818 5816 5814 5813 5811 5809 5807 5805 5803 5801 5799 5797 5795 5793 5790 5788 5786 5783 5780 5778 5775 5772 5769 5765 5762 5758 5754 5751 5747 5743 5740 5737 5732 5727 5722 5717 5712 5708 5703 5698 5692 5687 5683 5678 5670 5663 5657 5651 5644 5638 5631 5623 5617 5610 5604 5597 5589 5581 5573 5566 5559 5551 5543 5535 5528 5520 5511 5502 5492
5830 5830 5830 5829 5829 5829 5828 5828 5827 5827 5826 5825 5824 5823 5822 5821 5820 5819 5818 5816 5815 5813 5811 5809 5808 5806 5804 5802 5799 5797 5795 5793 5791 5788 5786 5783 5781 5778 5775 5773 5769 5766 5763 5759 5756 5752 5748 5744 5740 5736 5733 5729 5723 5719 5714 5710 5705 5700 5694 5689 5684 5680 5676 5669 5661 5654 5649 5642 5635 5629 5621 5615 5609 5602 5596 5589 5580 5573 5567 5559 5552 5544 5536 5527 5518 5509 5499 5489